Time,TemperatureF,DewpointF,PressureIn,WindDirection,WindDirectionDegrees,WindSpeedMPH,WindSpeedGustMPH,Humidity,HourlyPrecipIn,Conditions,Clouds,dailyrainin,SoftwareType,DateUTC
2013-01-16 00:01:00,31.7,30.9,30.13,NW,312,0.0,0.0,97,0.00,,,0.00,WeatherCatV1.02B3,2013-01-16 06:01:00,
2013-01-16 00:06:00,31.7,30.9,30.14,NW,312,0.0,0.0,97,0.00,,,0.00,WeatherCatV1.02B3,2013-01-16 06:06:00,
2013-01-16 00:11:00,31.7,30.9,30.14,NW,312,0.0,0.0,97,0.00,,,0.00,WeatherCatV1.02B3,2013-01-16 06:11:00,
2013-01-16 00:16:00,31.6,30.8,30.14,NW,312,0.0,0.0,97,0.00,,,0.00,WeatherCatV1.02B3,2013-01-16 06:16:00,
2013-01-16 00:21:00,31.6,30.8,30.13,NW,312,0.0,0.0,97,0.00,,,0.00,WeatherCatV1.02B3,2013-01-16 06:21:00,
2013-01-16 00:26:00,31.6,30.6,30.13,NW,312,0.0,0.0,96,0.00,,,0.00,WeatherCatV1.02B3,2013-01-16 06:26:00,
2013-01-16 00:31:00,31.5,30.5,30.13,NW,312,0.0,0.0,96,0.00,,,0.00,WeatherCatV1.02B3,2013-01-16 06:31:00,
2013-01-16 00:36:00,31.5,30.5,30.13,NW,312,0.0,0.0,96,0.00,,,0.00,WeatherCatV1.02B3,2013-01-16 06:36:00,
2013-01-16 00:41:00,31.6,30.6,30.14,NW,312,0.0,0.0,96,0.00,,,0.00,WeatherCatV1.02B3,2013-01-16 06:41:00,
2013-01-16 00:46:00,31.5,30.5,30.14,NW,312,0.0,0.0,96,0.00,,,0.00,WeatherCatV1.02B3,2013-01-16 06:46:00,
2013-01-16 00:51:00,31.4,30.4,30.12,NW,312,0.0,0.0,96,0.00,,,0.00,WeatherCatV1.02B3,2013-01-16 06:51:00,
2013-01-16 00:56:00,31.2,30.2,30.11,NW,312,0.0,0.0,96,0.00,,,0.00,WeatherCatV1.02B3,2013-01-16 06:56:00,
2013-01-16 01:01:00,31.2,30.2,30.13,NW,312,0.0,0.0,96,0.00,,,0.00,WeatherCatV1.02B3,2013-01-16 07:01:00,
2013-01-16 01:06:00,31.1,30.1,30.14,NW,312,0.0,0.0,96,0.00,,,0.00,WeatherCatV1.02B3,2013-01-16 07:06:00,
2013-01-16 01:11:00,31.1,30.1,30.14,NW,312,0.0,0.0,96,0.00,,,0.00,WeatherCatV1.02B3,2013-01-16 07:11:00,
2013-01-16 01:16:00,31.0,30.0,30.15,NW,312,0.0,0.0,96,0.00,,,0.00,WeatherCatV1.02B3,2013-01-16 07:16:00,
2013-01-16 01:21:00,31.1,30.1,30.14,NW,312,0.0,0.0,96,0.00,,,0.00,WeatherCatV1.02B3,2013-01-16 07:21:00,
2013-01-16 01:26:00,31.1,29.8,30.16,NW,312,0.0,0.0,95,0.00,,,0.00,WeatherCatV1.02B3,2013-01-16 07:26:00,
2013-01-16 01:31:00,31.1,29.8,30.16,NW,312,0.0,0.0,95,0.00,,,0.00,WeatherCatV1.02B3,2013-01-16 07:31:00,
2013-01-16 01:36:00,31.1,29.8,30.15,NW,312,0.0,0.0,95,0.00,,,0.00,WeatherCatV1.02B3,2013-01-16 07:36:00,
2013-01-16 01:41:00,31.1,29.8,30.15,NW,312,0.0,0.0,95,0.00,,,0.00,WeatherCatV1.02B3,2013-01-16 07:41:00,
2013-01-16 01:46:00,31.1,29.8,30.16,NW,312,0.0,0.0,95,0.00,,,0.00,WeatherCatV1.02B3,2013-01-16 07:46:00,
2013-01-16 01:51:00,31.1,29.8,30.16,NW,312,0.0,0.0,95,0.00,,,0.00,WeatherCatV1.02B3,2013-01-16 07:51:00,
2013-01-16 01:56:00,31.1,29.8,30.16,NW,312,0.0,0.0,95,0.00,,,0.00,WeatherCatV1.02B3,2013-01-16 07:56:00,
2013-01-16 02:01:00,31.1,29.8,30.15,NW,312,0.0,0.0,95,0.00,,,0.00,WeatherCatV1.02B3,2013-01-16 08:01:00,
2013-01-16 02:06:00,31.1,29.8,30.15,NW,312,0.0,0.0,95,0.00,,,0.00,WeatherCatV1.02B3,2013-01-16 08:06:00,
2013-01-16 02:11:00,31.1,29.8,30.14,NW,312,0.0,0.0,95,0.00,,,0.00,WeatherCatV1.02B3,2013-01-16 08:11:00,
2013-01-16 02:16:00,31.1,29.8,30.13,NW,312,0.0,0.0,95,0.00,,,0.00,WeatherCatV1.02B3,2013-01-16 08:16:00,
2013-01-16 02:21:00,31.1,29.8,30.13,NW,312,0.0,0.0,95,0.00,,,0.00,WeatherCatV1.02B3,2013-01-16 08:21:00,
2013-01-16 02:26:00,31.1,29.8,30.13,NW,312,0.0,0.0,95,0.00,,,0.00,WeatherCatV1.02B3,2013-01-16 08:26:00,
2013-01-16 02:31:00,31.1,29.8,30.13,NW,312,0.0,0.0,95,0.00,,,0.00,WeatherCatV1.02B3,2013-01-16 08:31:00,
2013-01-16 02:36:00,31.1,29.8,30.13,NW,312,0.0,0.0,95,0.00,,,0.00,WeatherCatV1.02B3,2013-01-16 08:36:00,
2013-01-16 02:41:00,31.2,29.9,30.12,NW,312,0.0,0.0,95,0.00,,,0.00,WeatherCatV1.02B3,2013-01-16 08:41:00,
2013-01-16 02:46:00,31.2,29.9,30.12,NW,312,0.0,0.0,95,0.00,,,0.00,WeatherCatV1.02B3,2013-01-16 08:46:00,
2013-01-16 02:49:00,31.1,29.8,30.12,NW,312,0.0,0.0,95,0.00,,,0.00,WeatherCatV1.02B3,2013-01-16 08:49:00,
2013-01-16 02:54:00,31.1,29.8,30.11,NW,312,0.0,0.0,95,0.00,,,0.00,WeatherCatV1.02B3,2013-01-16 08:54:00,
2013-01-16 02:59:00,31.0,29.7,30.12,NW,312,0.0,0.0,95,0.00,,,0.00,WeatherCatV1.02B3,2013-01-16 08:59:00,
2013-01-16 03:04:00,31.1,29.8,30.12,NW,312,0.0,0.0,95,0.00,,,0.00,WeatherCatV1.02B3,2013-01-16 09:04:00,
2013-01-16 03:09:00,31.0,29.7,30.13,NW,312,0.0,0.0,95,0.00,,,0.00,WeatherCatV1.02B3,2013-01-16 09:09:00,
2013-01-16 03:14:00,31.0,29.7,30.11,NW,312,0.0,0.0,95,0.00,,,0.00,WeatherCatV1.02B3,2013-01-16 09:14:00,
2013-01-16 03:19:00,31.0,29.7,30.11,NW,312,0.0,0.0,95,0.00,,,0.00,WeatherCatV1.02B3,2013-01-16 09:19:00,
2013-01-16 03:24:00,30.9,29.6,30.12,NW,312,0.0,0.0,95,0.00,,,0.00,WeatherCatV1.02B3,2013-01-16 09:24:00,
2013-01-16 03:29:00,31.0,29.7,30.14,NW,312,0.0,0.0,95,0.00,,,0.00,WeatherCatV1.02B3,2013-01-16 09:29:00,
2013-01-16 03:34:00,31.0,29.7,30.15,NW,312,0.0,0.0,95,0.00,,,0.00,WeatherCatV1.02B3,2013-01-16 09:34:00,
2013-01-16 03:39:00,31.0,29.7,30.14,NW,312,0.0,0.0,95,0.00,,,0.00,WeatherCatV1.02B3,2013-01-16 09:39:00,
2013-01-16 03:44:00,31.1,29.8,30.14,NW,312,0.0,0.0,95,0.00,,,0.00,WeatherCatV1.02B3,2013-01-16 09:44:00,
2013-01-16 03:49:00,31.1,29.8,30.15,NW,312,0.0,0.0,95,0.00,,,0.00,WeatherCatV1.02B3,2013-01-16 09:49:00,
2013-01-16 03:54:00,31.2,29.9,30.15,NW,312,0.0,0.0,95,0.00,,,0.00,WeatherCatV1.02B3,2013-01-16 09:54:00,
2013-01-16 03:59:00,31.2,29.9,30.17,NW,312,0.0,0.0,95,0.00,,,0.00,WeatherCatV1.02B3,2013-01-16 09:59:00,
2013-01-16 04:04:00,31.2,29.9,30.17,NW,312,0.0,0.0,95,0.00,,,0.00,WeatherCatV1.02B3,2013-01-16 10:04:00,
2013-01-16 04:09:00,31.2,29.9,30.16,NW,312,0.0,0.0,95,0.00,,,0.00,WeatherCatV1.02B3,2013-01-16 10:09:00,
2013-01-16 04:14:00,31.2,29.9,30.16,NW,312,0.0,0.0,95,0.00,,,0.00,WeatherCatV1.02B3,2013-01-16 10:14:00,
2013-01-16 04:19:00,31.2,29.9,30.14,NW,312,0.0,0.0,95,0.00,,,0.00,WeatherCatV1.02B3,2013-01-16 10:19:00,
2013-01-16 04:24:00,31.1,29.8,30.14,NW,312,0.0,0.0,95,0.00,,,0.00,WeatherCatV1.02B3,2013-01-16 10:24:00,
2013-01-16 04:29:00,31.2,29.9,30.13,NW,312,0.0,0.0,95,0.00,,,0.00,WeatherCatV1.02B3,2013-01-16 10:29:00,
2013-01-16 04:34:00,31.1,29.8,30.13,NW,312,0.0,0.0,95,0.00,,,0.00,WeatherCatV1.02B3,2013-01-16 10:34:00,
2013-01-16 04:39:00,31.1,29.8,30.13,NW,312,0.0,0.0,95,0.00,,,0.00,WeatherCatV1.02B3,2013-01-16 10:39:00,
2013-01-16 04:44:00,31.1,29.8,30.12,NW,312,0.0,0.0,95,0.00,,,0.00,WeatherCatV1.02B3,2013-01-16 10:44:00,
2013-01-16 04:49:00,31.1,29.8,30.13,NW,312,0.0,0.0,95,0.00,,,0.00,WeatherCatV1.02B3,2013-01-16 10:49:00,
2013-01-16 04:54:00,31.2,29.9,30.15,NW,312,0.0,0.0,95,0.00,,,0.00,WeatherCatV1.02B3,2013-01-16 10:54:00,
2013-01-16 04:59:00,31.2,29.9,30.16,NW,312,0.0,0.0,95,0.00,,,0.00,WeatherCatV1.02B3,2013-01-16 10:59:00,
2013-01-16 05:04:00,31.2,29.9,30.17,NW,312,0.0,0.0,95,0.00,,,0.00,WeatherCatV1.02B3,2013-01-16 11:04:00,
2013-01-16 05:09:00,31.2,29.9,30.16,NW,312,0.0,0.0,95,0.00,,,0.00,WeatherCatV1.02B3,2013-01-16 11:09:00,
2013-01-16 05:14:00,31.2,29.9,30.16,NW,312,0.0,0.0,95,0.00,,,0.00,WeatherCatV1.02B3,2013-01-16 11:14:00,
2013-01-16 05:19:00,31.2,29.9,30.16,NW,312,0.0,0.0,95,0.00,,,0.00,WeatherCatV1.02B3,2013-01-16 11:19:00,
2013-01-16 05:24:00,31.2,29.9,30.15,NW,312,0.0,0.0,95,0.00,,,0.00,WeatherCatV1.02B3,2013-01-16 11:24:00,
2013-01-16 05:29:00,31.2,29.9,30.15,NW,312,0.0,0.0,95,0.00,,,0.00,WeatherCatV1.02B3,2013-01-16 11:29:00,
2013-01-16 05:34:00,31.2,29.9,30.16,NW,312,0.0,0.0,95,0.00,,,0.00,WeatherCatV1.02B3,2013-01-16 11:34:00,
2013-01-16 05:39:00,31.1,29.8,30.17,NW,312,0.0,0.0,95,0.00,,,0.00,WeatherCatV1.02B3,2013-01-16 11:39:00,
2013-01-16 05:44:00,31.1,29.8,30.18,NW,312,0.0,0.0,95,0.00,,,0.00,WeatherCatV1.02B3,2013-01-16 11:44:00,
2013-01-16 05:49:00,31.1,29.6,30.17,NW,312,0.0,0.0,94,0.00,,,0.00,WeatherCatV1.02B3,2013-01-16 11:49:00,
2013-01-16 05:54:00,31.0,29.5,30.18,NW,312,0.0,0.0,94,0.00,,,0.00,WeatherCatV1.02B3,2013-01-16 11:54:00,
2013-01-16 05:59:00,31.1,29.6,30.17,NW,312,0.0,0.0,94,0.00,,,0.00,WeatherCatV1.02B3,2013-01-16 11:59:00,
2013-01-16 06:04:00,31.1,29.6,30.17,NW,312,0.0,0.0,94,0.00,,,0.00,WeatherCatV1.02B3,2013-01-16 12:04:00,
2013-01-16 06:09:00,31.0,29.5,30.17,NW,312,0.0,0.0,94,0.00,,,0.00,WeatherCatV1.02B3,2013-01-16 12:09:00,
2013-01-16 06:14:00,31.0,29.5,30.17,NW,312,0.0,0.0,94,0.00,,,0.00,WeatherCatV1.02B3,2013-01-16 12:14:00,
2013-01-16 06:19:00,31.0,29.5,30.17,NW,312,0.0,0.0,94,0.00,,,0.00,WeatherCatV1.02B3,2013-01-16 12:19:00,
2013-01-16 06:24:00,30.9,29.1,30.17,NW,312,0.0,0.0,93,0.00,,,0.00,WeatherCatV1.02B3,2013-01-16 12:24:00,
2013-01-16 06:29:00,31.0,29.2,30.15,NW,312,0.0,0.0,93,0.00,,,0.00,WeatherCatV1.02B3,2013-01-16 12:29:00,
2013-01-16 06:34:00,30.9,29.1,30.16,NW,312,0.0,0.0,93,0.00,,,0.00,WeatherCatV1.02B3,2013-01-16 12:34:00,
2013-01-16 06:39:00,31.0,29.2,30.16,NW,312,0.0,0.0,93,0.00,,,0.00,WeatherCatV1.02B3,2013-01-16 12:39:00,
2013-01-16 06:44:00,31.0,29.2,30.16,NW,312,0.0,0.0,93,0.00,,,0.00,WeatherCatV1.02B3,2013-01-16 12:44:00,
2013-01-16 06:49:00,31.0,29.2,30.14,NW,312,0.0,0.0,93,0.00,,,0.00,WeatherCatV1.02B3,2013-01-16 12:49:00,
2013-01-16 06:54:00,31.0,29.2,30.14,NW,312,0.0,0.0,93,0.00,,,0.00,WeatherCatV1.02B3,2013-01-16 12:54:00,
2013-01-16 06:59:00,31.0,29.2,30.14,NW,312,0.0,0.0,93,0.00,,,0.00,WeatherCatV1.02B3,2013-01-16 12:59:00,
2013-01-16 07:04:00,31.0,29.2,30.15,NW,312,0.0,0.0,93,0.00,,,0.00,WeatherCatV1.02B3,2013-01-16 13:04:00,
2013-01-16 07:09:00,31.0,29.2,30.15,NW,312,0.0,0.0,93,0.00,,,0.00,WeatherCatV1.02B3,2013-01-16 13:09:00,
2013-01-16 07:14:00,31.1,29.6,30.17,NW,312,0.0,0.0,94,0.00,,,0.00,WeatherCatV1.02B3,2013-01-16 13:14:00,
2013-01-16 07:19:00,31.1,29.6,30.18,NW,312,0.0,0.0,94,0.00,,,0.00,WeatherCatV1.02B3,2013-01-16 13:19:00,
2013-01-16 07:24:00,31.2,29.7,30.18,NW,312,0.0,0.0,94,0.00,,,0.00,WeatherCatV1.02B3,2013-01-16 13:24:00,
2013-01-16 07:29:00,31.2,29.7,30.20,NW,312,0.0,0.0,94,0.00,,,0.00,WeatherCatV1.02B3,2013-01-16 13:29:00,
2013-01-16 07:34:00,31.2,29.4,30.20,NW,312,0.0,0.0,93,0.00,,,0.00,WeatherCatV1.02B3,2013-01-16 13:34:00,
2013-01-16 07:39:00,31.3,29.5,30.20,NW,312,0.0,0.0,93,0.00,,,0.00,WeatherCatV1.02B3,2013-01-16 13:39:00,
2013-01-16 07:44:00,31.3,29.5,30.21,NW,312,0.0,0.0,93,0.00,,,0.00,WeatherCatV1.02B3,2013-01-16 13:44:00,
2013-01-16 07:49:00,31.3,29.5,30.22,NW,312,0.0,0.0,93,0.00,,,0.00,WeatherCatV1.02B3,2013-01-16 13:49:00,
2013-01-16 07:54:00,31.4,29.6,30.23,NW,312,0.0,0.0,93,0.00,,,0.00,WeatherCatV1.02B3,2013-01-16 13:54:00,
2013-01-16 07:59:00,31.4,29.6,30.21,NW,312,0.0,0.0,93,0.00,,,0.00,WeatherCatV1.02B3,2013-01-16 13:59:00,
2013-01-16 08:04:00,31.4,29.6,30.20,NW,312,0.0,0.0,93,0.00,,,0.00,WeatherCatV1.02B3,2013-01-16 14:04:00,
2013-01-16 08:09:00,31.4,29.6,30.19,NW,312,0.0,0.0,93,0.00,,,0.00,WeatherCatV1.02B3,2013-01-16 14:09:00,
2013-01-16 08:14:00,31.4,29.4,30.19,NW,312,0.0,0.0,92,0.00,,,0.00,WeatherCatV1.02B3,2013-01-16 14:14:00,
2013-01-16 08:19:00,31.3,29.3,30.19,NW,312,0.0,0.0,92,0.00,,,0.00,WeatherCatV1.02B3,2013-01-16 14:19:00,
2013-01-16 08:24:00,31.4,29.4,30.18,NW,312,0.0,0.0,92,0.00,,,0.00,WeatherCatV1.02B3,2013-01-16 14:24:00,
2013-01-16 08:29:00,31.4,29.4,30.19,NW,312,0.0,0.0,92,0.00,,,0.00,WeatherCatV1.02B3,2013-01-16 14:29:00,
2013-01-16 08:34:00,31.4,29.4,30.19,NW,312,0.0,0.0,92,0.00,,,0.00,WeatherCatV1.02B3,2013-01-16 14:34:00,
2013-01-16 08:39:00,31.4,29.4,30.22,NW,312,0.0,0.0,92,0.00,,,0.00,WeatherCatV1.02B3,2013-01-16 14:39:00,
2013-01-16 08:44:00,31.5,29.2,30.20,NW,312,0.0,0.0,91,0.00,,,0.00,WeatherCatV1.02B3,2013-01-16 14:44:00,
2013-01-16 08:49:00,31.5,29.2,30.19,NW,312,0.0,0.0,91,0.00,,,0.00,WeatherCatV1.02B3,2013-01-16 14:49:00,
2013-01-16 08:54:00,31.5,29.2,30.21,NW,312,0.0,0.0,91,0.00,,,0.00,WeatherCatV1.02B3,2013-01-16 14:54:00,
2013-01-16 08:59:00,31.6,29.3,30.23,NW,312,0.0,0.0,91,0.00,,,0.00,WeatherCatV1.02B3,2013-01-16 14:59:00,
2013-01-16 09:04:00,31.6,29.3,30.23,NW,312,0.0,0.0,91,0.00,,,0.00,WeatherCatV1.02B3,2013-01-16 15:04:00,
2013-01-16 09:09:00,31.7,29.4,30.21,NW,312,0.0,0.0,91,0.00,,,0.00,WeatherCatV1.02B3,2013-01-16 15:09:00,
2013-01-16 09:14:00,31.7,29.4,30.21,NW,312,0.0,0.0,91,0.00,,,0.00,WeatherCatV1.02B3,2013-01-16 15:14:00,
2013-01-16 09:19:00,31.7,29.4,30.21,NW,312,0.0,0.0,91,0.00,,,0.00,WeatherCatV1.02B3,2013-01-16 15:19:00,
2013-01-16 09:24:00,31.7,29.4,30.21,NW,312,0.0,0.0,91,0.00,,,0.00,WeatherCatV1.02B3,2013-01-16 15:24:00,
2013-01-16 09:29:00,31.7,29.1,30.19,NW,312,0.0,0.0,90,0.00,,,0.00,WeatherCatV1.02B3,2013-01-16 15:29:00,
2013-01-16 09:34:00,31.7,29.1,30.22,NW,312,0.0,0.0,90,0.00,,,0.00,WeatherCatV1.02B3,2013-01-16 15:34:00,
2013-01-16 09:39:00,31.8,29.2,30.21,NW,312,0.0,0.0,90,0.00,,,0.00,WeatherCatV1.02B3,2013-01-16 15:39:00,
2013-01-16 09:44:00,31.8,29.2,30.19,NW,312,0.0,0.0,90,0.00,,,0.00,WeatherCatV1.02B3,2013-01-16 15:44:00,
2013-01-16 09:49:00,31.8,29.2,30.17,NW,312,0.0,0.0,90,0.00,,,0.00,WeatherCatV1.02B3,2013-01-16 15:49:00,
2013-01-16 09:54:00,31.8,29.2,30.17,NW,312,0.0,0.0,90,0.00,,,0.00,WeatherCatV1.02B3,2013-01-16 15:54:00,
2013-01-16 09:59:00,31.8,29.2,30.17,NW,312,0.0,0.0,90,0.00,,,0.00,WeatherCatV1.02B3,2013-01-16 15:59:00,
2013-01-16 10:04:00,31.8,29.2,30.17,NW,312,0.0,0.0,90,0.00,,,0.00,WeatherCatV1.02B3,2013-01-16 16:04:00,
2013-01-16 10:09:00,31.8,28.9,30.20,NW,312,0.0,0.0,89,0.00,,,0.00,WeatherCatV1.02B3,2013-01-16 16:09:00,
2013-01-16 10:14:00,31.8,28.9,30.21,NW,312,0.0,0.0,89,0.00,,,0.00,WeatherCatV1.02B3,2013-01-16 16:14:00,
2013-01-16 10:19:00,31.9,29.0,30.22,NW,312,0.0,0.0,89,0.00,,,0.00,WeatherCatV1.02B3,2013-01-16 16:19:00,
2013-01-16 10:24:00,31.9,29.0,30.19,NW,312,0.0,0.0,89,0.00,,,0.00,WeatherCatV1.02B3,2013-01-16 16:24:00,
2013-01-16 10:29:00,31.9,29.0,30.18,NW,312,0.0,0.0,89,0.00,,,0.00,WeatherCatV1.02B3,2013-01-16 16:29:00,
2013-01-16 10:34:00,31.9,29.0,30.17,NW,312,0.0,0.0,89,0.00,,,0.00,WeatherCatV1.02B3,2013-01-16 16:34:00,
2013-01-16 10:39:00,31.9,29.3,30.18,NW,312,0.0,0.0,90,0.00,,,0.00,WeatherCatV1.02B3,2013-01-16 16:39:00,
2013-01-16 10:44:00,31.9,29.3,30.17,NW,312,0.0,0.0,90,0.00,,,0.00,WeatherCatV1.02B3,2013-01-16 16:44:00,
2013-01-16 10:49:00,31.9,29.0,30.18,NW,312,0.0,0.0,89,0.00,,,0.00,WeatherCatV1.02B3,2013-01-16 16:49:00,
2013-01-16 10:54:00,32.0,29.4,30.18,NW,312,0.0,0.0,90,0.00,,,0.00,WeatherCatV1.02B3,2013-01-16 16:54:00,
2013-01-16 10:59:00,32.0,29.4,30.18,NW,312,0.0,0.0,90,0.00,,,0.00,WeatherCatV1.02B3,2013-01-16 16:59:00,
2013-01-16 11:04:00,32.1,29.5,30.19,NW,312,0.0,0.0,90,0.00,,,0.00,WeatherCatV1.02B3,2013-01-16 17:04:00,
2013-01-16 11:09:00,32.1,29.5,30.18,NW,312,0.0,0.0,90,0.00,,,0.00,WeatherCatV1.02B3,2013-01-16 17:09:00,
2013-01-16 11:14:00,32.1,29.8,30.20,NW,312,0.0,0.0,91,0.00,,,0.00,WeatherCatV1.02B3,2013-01-16 17:14:00,
2013-01-16 11:19:00,32.1,29.8,30.19,NW,312,0.0,0.0,91,0.00,,,0.00,WeatherCatV1.02B3,2013-01-16 17:19:00,
2013-01-16 11:24:00,32.1,29.5,30.20,NW,312,0.0,0.0,90,0.00,,,0.00,WeatherCatV1.02B3,2013-01-16 17:24:00,
2013-01-16 11:29:00,32.1,29.2,30.20,NW,312,0.0,0.0,89,0.00,,,0.00,WeatherCatV1.02B3,2013-01-16 17:29:00,
2013-01-16 11:34:00,32.2,29.6,30.20,NW,312,0.0,0.0,90,0.00,,,0.00,WeatherCatV1.02B3,2013-01-16 17:34:00,
2013-01-16 11:39:00,32.2,29.6,30.19,NW,312,0.0,0.0,90,0.00,,,0.00,WeatherCatV1.02B3,2013-01-16 17:39:00,
2013-01-16 11:44:00,32.3,29.7,30.17,NW,312,0.0,0.0,90,0.00,,,0.00,WeatherCatV1.02B3,2013-01-16 17:44:00,
2013-01-16 11:49:00,32.3,29.7,30.16,NW,312,0.0,0.0,90,0.00,,,0.00,WeatherCatV1.02B3,2013-01-16 17:49:00,
2013-01-16 11:54:00,32.3,29.7,30.18,NW,312,0.0,0.0,90,0.00,,,0.00,WeatherCatV1.02B3,2013-01-16 17:54:00,
2013-01-16 11:59:00,32.3,29.4,30.17,NW,312,0.0,0.0,89,0.00,,,0.00,WeatherCatV1.02B3,2013-01-16 17:59:00,
2013-01-16 12:04:00,32.3,29.7,30.18,North,0,0.0,0.0,90,0.00,,,0.00,WeatherCatV1.02B3,2013-01-16 18:04:00,
2013-01-16 12:09:00,32.4,29.8,30.18,North,0,0.0,0.0,90,0.00,,,0.00,WeatherCatV1.02B3,2013-01-16 18:09:00,
2013-01-16 12:14:00,32.4,29.8,30.19,North,0,0.0,0.0,90,0.00,,,0.00,WeatherCatV1.02B3,2013-01-16 18:14:00,
2013-01-16 12:19:00,32.4,30.1,30.18,North,0,0.0,0.0,91,0.00,,,0.00,WeatherCatV1.02B3,2013-01-16 18:19:00,
2013-01-16 12:24:00,32.5,30.2,30.17,North,0,0.0,0.0,91,0.00,,,0.00,WeatherCatV1.02B3,2013-01-16 18:24:00,
2013-01-16 12:29:00,32.5,30.2,30.18,North,0,0.0,0.0,91,0.00,,,0.00,WeatherCatV1.02B3,2013-01-16 18:29:00,
2013-01-16 12:34:00,32.5,30.2,30.17,North,0,0.0,0.0,91,0.00,,,0.00,WeatherCatV1.02B3,2013-01-16 18:34:00,
2013-01-16 12:39:00,32.5,30.2,30.17,North,0,0.0,0.0,91,0.00,,,0.00,WeatherCatV1.02B3,2013-01-16 18:39:00,
2013-01-16 12:44:00,32.5,30.2,30.17,North,0,0.0,0.0,91,0.00,,,0.00,WeatherCatV1.02B3,2013-01-16 18:44:00,
2013-01-16 12:49:00,32.5,29.9,30.17,North,0,0.0,0.0,90,0.00,,,0.00,WeatherCatV1.02B3,2013-01-16 18:49:00,
2013-01-16 12:54:00,32.5,30.2,30.18,North,0,0.0,0.0,91,0.00,,,0.00,WeatherCatV1.02B3,2013-01-16 18:54:00,
2013-01-16 12:59:00,32.5,30.2,30.17,North,0,0.0,0.0,91,0.00,,,0.00,WeatherCatV1.02B3,2013-01-16 18:59:00,
2013-01-16 13:04:00,32.5,30.2,30.16,North,0,0.0,0.0,91,0.00,,,0.00,WeatherCatV1.02B3,2013-01-16 19:04:00,
2013-01-16 13:09:00,32.6,30.3,30.16,North,0,0.0,0.0,91,0.24,,,0.02,WeatherCatV1.02B3,2013-01-16 19:09:00,
2013-01-16 13:14:00,32.6,30.3,30.15,North,0,0.0,0.0,91,0.08,,,0.02,WeatherCatV1.02B3,2013-01-16 19:14:00,
2013-01-16 13:19:00,32.6,30.5,30.16,North,0,0.0,0.0,92,0.05,,,0.02,WeatherCatV1.02B3,2013-01-16 19:19:00,
2013-01-16 13:24:00,32.7,30.4,30.16,North,0,0.0,0.0,91,0.00,,,0.02,WeatherCatV1.02B3,2013-01-16 19:24:00,
2013-01-16 13:29:00,32.6,30.3,30.15,North,0,0.0,0.0,91,0.00,,,0.02,WeatherCatV1.02B3,2013-01-16 19:29:00,
2013-01-16 13:34:00,32.8,30.7,30.16,NNW,327,0.0,0.0,92,0.00,,,0.02,WeatherCatV1.02B3,2013-01-16 19:34:00,
2013-01-16 13:39:00,32.8,30.5,30.16,NW,315,0.0,0.0,91,0.00,,,0.02,WeatherCatV1.02B3,2013-01-16 19:39:00,
2013-01-16 13:44:00,32.8,30.5,30.14,North,355,0.0,0.0,91,0.00,,,0.03,WeatherCatV1.02B3,2013-01-16 19:44:00,
2013-01-16 13:49:00,32.7,30.4,30.15,NNW,333,0.0,0.0,91,0.09,,,0.04,WeatherCatV1.02B3,2013-01-16 19:49:00,
2013-01-16 13:54:00,32.7,30.4,30.15,NNW,330,0.0,0.0,91,0.07,,,0.04,WeatherCatV1.02B3,2013-01-16 19:54:00,
2013-01-16 13:59:00,32.7,30.4,30.17,NW,319,0.0,0.0,91,0.05,,,0.04,WeatherCatV1.02B3,2013-01-16 19:59:00,
2013-01-16 14:04:00,32.8,30.5,30.17,NW,319,0.0,0.0,91,0.00,,,0.04,WeatherCatV1.02B3,2013-01-16 20:04:00,
2013-01-16 14:09:00,32.8,30.2,30.17,North,349,0.0,0.0,90,0.00,,,0.04,WeatherCatV1.02B3,2013-01-16 20:09:00,
2013-01-16 14:14:00,32.9,30.6,30.16,NNW,348,0.0,0.0,91,0.00,,,0.04,WeatherCatV1.02B3,2013-01-16 20:14:00,
2013-01-16 14:19:00,32.9,30.6,30.16,NNW,344,0.0,0.0,91,0.00,,,0.04,WeatherCatV1.02B3,2013-01-16 20:19:00,
2013-01-16 14:24:00,32.9,30.6,30.15,North,355,0.0,0.0,91,0.00,,,0.04,WeatherCatV1.02B3,2013-01-16 20:24:00,
2013-01-16 14:29:00,32.9,30.3,30.16,North,355,0.0,0.0,90,0.00,,,0.04,WeatherCatV1.02B3,2013-01-16 20:29:00,
2013-01-16 14:34:00,33.1,31.0,30.16,North,355,0.0,0.0,92,0.00,,,0.04,WeatherCatV1.02B3,2013-01-16 20:34:00,
2013-01-16 14:39:00,33.1,30.8,30.15,NNW,346,0.0,0.0,91,0.00,,,0.04,WeatherCatV1.02B3,2013-01-16 20:39:00,
2013-01-16 14:44:00,33.1,31.0,30.15,North,5,0.0,0.0,92,0.00,,,0.04,WeatherCatV1.02B3,2013-01-16 20:44:00,
2013-01-16 14:49:00,33.1,30.8,30.15,NNE,15,0.0,0.0,91,0.00,,,0.04,WeatherCatV1.02B3,2013-01-16 20:49:00,
2013-01-16 15:12:00,33.3,31.0,30.15,NNW,348,0.0,0.0,91,0.00,,,0.05,WeatherCatV1.02B3,2013-01-16 21:12:00,
2013-01-16 15:17:00,33.3,30.7,30.15,North,355,0.0,0.0,90,0.00,,,0.05,WeatherCatV1.02B3,2013-01-16 21:17:00,
2013-01-16 15:22:00,33.3,31.0,30.15,North,5,0.0,0.0,91,0.00,,,0.05,WeatherCatV1.02B3,2013-01-16 21:22:00,
2013-01-16 15:27:00,33.4,31.1,30.15,North,0,0.0,0.0,91,0.00,,,0.05,WeatherCatV1.02B3,2013-01-16 21:27:00,
2013-01-16 15:32:00,33.4,31.1,30.15,NNW,327,0.0,0.0,91,0.00,,,0.05,WeatherCatV1.02B3,2013-01-16 21:32:00,
2013-01-16 15:37:00,33.4,31.1,30.15,NNW,340,0.0,0.0,91,0.00,,,0.05,WeatherCatV1.02B3,2013-01-16 21:37:00,
2013-01-16 15:42:00,33.5,31.2,30.15,North,0,0.0,0.0,91,0.00,,,0.05,WeatherCatV1.02B3,2013-01-16 21:42:00,
2013-01-16 15:47:00,33.5,31.2,30.15,North,355,0.0,0.0,91,0.00,,,0.05,WeatherCatV1.02B3,2013-01-16 21:47:00,
2013-01-16 15:52:00,33.5,31.2,30.15,North,349,0.0,0.0,91,0.00,,,0.05,WeatherCatV1.02B3,2013-01-16 21:52:00,
2013-01-16 15:57:00,33.6,31.3,30.15,North,349,0.0,0.0,91,0.00,,,0.06,WeatherCatV1.02B3,2013-01-16 21:57:00,
2013-01-16 16:02:00,33.5,31.2,30.15,NNW,333,0.0,0.0,91,0.00,,,0.06,WeatherCatV1.02B3,2013-01-16 22:02:00,
2013-01-16 16:07:00,33.6,31.3,30.15,NNW,344,0.0,0.0,91,0.00,,,0.06,WeatherCatV1.02B3,2013-01-16 22:07:00,
2013-01-16 16:12:00,33.5,30.9,30.15,NNW,340,0.0,0.0,90,0.00,,,0.06,WeatherCatV1.02B3,2013-01-16 22:12:00,
2013-01-16 16:17:00,33.6,31.3,30.15,NNW,346,0.0,0.0,91,0.00,,,0.06,WeatherCatV1.02B3,2013-01-16 22:17:00,
2013-01-16 16:22:00,33.6,31.3,30.15,North,349,0.0,0.0,91,0.00,,,0.06,WeatherCatV1.02B3,2013-01-16 22:22:00,
2013-01-16 16:27:00,33.6,31.3,30.16,NNW,327,0.0,0.0,91,0.00,,,0.06,WeatherCatV1.02B3,2013-01-16 22:27:00,
2013-01-16 16:32:00,33.6,31.3,30.16,NNW,347,0.0,0.0,91,0.00,,,0.06,WeatherCatV1.02B3,2013-01-16 22:32:00,
2013-01-16 16:37:00,33.6,31.3,30.16,NNW,345,0.0,0.0,91,0.00,,,0.06,WeatherCatV1.02B3,2013-01-16 22:37:00,
2013-01-16 16:42:00,33.7,31.4,30.16,NNW,348,0.0,0.0,91,0.00,,,0.06,WeatherCatV1.02B3,2013-01-16 22:42:00,
2013-01-16 16:47:00,33.7,31.6,30.17,NNW,348,0.0,0.0,92,0.00,,,0.06,WeatherCatV1.02B3,2013-01-16 22:47:00,
2013-01-16 16:52:00,33.8,31.7,30.17,NNW,341,0.0,0.0,92,0.00,,,0.06,WeatherCatV1.02B3,2013-01-16 22:52:00,
2013-01-16 16:57:00,33.9,31.8,30.17,NNW,330,0.0,0.0,92,0.00,,,0.06,WeatherCatV1.02B3,2013-01-16 22:57:00,
2013-01-16 17:02:00,33.9,31.6,30.17,North,349,0.0,0.0,91,0.00,,,0.06,WeatherCatV1.02B3,2013-01-16 23:02:00,
2013-01-16 17:07:00,33.9,31.6,30.17,NNW,345,0.0,0.0,91,0.00,,,0.06,WeatherCatV1.02B3,2013-01-16 23:07:00,
2013-01-16 17:12:00,34.0,31.9,30.17,NNW,334,0.0,0.0,92,0.00,,,0.06,WeatherCatV1.02B3,2013-01-16 23:12:00,
2013-01-16 17:17:00,33.9,31.8,30.16,NNW,338,0.0,0.0,92,0.00,,,0.06,WeatherCatV1.02B3,2013-01-16 23:17:00,
2013-01-16 17:22:00,33.9,31.6,30.16,NNW,338,0.0,0.0,91,0.00,,,0.06,WeatherCatV1.02B3,2013-01-16 23:22:00,
2013-01-16 17:27:00,33.9,31.8,30.16,NNW,338,0.0,0.0,92,0.00,,,0.06,WeatherCatV1.02B3,2013-01-16 23:27:00,
2013-01-16 17:32:00,33.9,31.8,30.17,NNW,338,0.0,0.0,92,0.00,,,0.06,WeatherCatV1.02B3,2013-01-16 23:32:00,
2013-01-16 17:37:00,33.9,31.8,30.16,NNW,338,0.0,0.0,92,0.00,,,0.06,WeatherCatV1.02B3,2013-01-16 23:37:00,
2013-01-16 17:42:00,33.9,31.8,30.17,NNW,338,0.0,0.0,92,0.00,,,0.06,WeatherCatV1.02B3,2013-01-16 23:42:00,
2013-01-16 17:47:00,33.9,31.8,30.17,NNW,338,0.0,0.0,92,0.00,,,0.06,WeatherCatV1.02B3,2013-01-16 23:47:00,
2013-01-16 17:52:00,33.9,31.8,30.17,NNW,338,0.0,0.0,92,0.00,,,0.06,WeatherCatV1.02B3,2013-01-16 23:52:00,
2013-01-16 17:57:00,33.8,31.7,30.17,NNW,338,0.0,0.0,92,0.00,,,0.06,WeatherCatV1.02B3,2013-01-16 23:57:00,
2013-01-16 18:02:00,33.8,31.7,30.17,NNW,338,0.0,0.0,92,0.00,,,0.07,WeatherCatV1.02B3,2013-01-17 00:02:00,
2013-01-16 18:07:00,33.9,32.1,30.18,NNW,338,0.0,0.0,93,0.00,,,0.07,WeatherCatV1.02B3,2013-01-17 00:07:00,
2013-01-16 18:12:00,33.9,32.1,30.18,NNW,338,0.0,0.0,93,0.00,,,0.07,WeatherCatV1.02B3,2013-01-17 00:12:00,
2013-01-16 18:17:00,33.9,31.8,30.18,NNW,338,0.0,0.0,92,0.00,,,0.07,WeatherCatV1.02B3,2013-01-17 00:17:00,
2013-01-16 18:22:00,33.9,32.1,30.18,NNW,338,0.0,0.0,93,0.00,,,0.07,WeatherCatV1.02B3,2013-01-17 00:22:00,
2013-01-16 18:27:00,34.0,32.2,30.18,NNW,338,0.0,0.0,93,0.00,,,0.07,WeatherCatV1.02B3,2013-01-17 00:27:00,
2013-01-16 18:32:00,34.0,32.2,30.17,NNW,338,0.0,0.0,93,0.00,,,0.07,WeatherCatV1.02B3,2013-01-17 00:32:00,
2013-01-16 18:37:00,34.1,32.3,30.18,NNW,338,0.0,0.0,93,0.00,,,0.07,WeatherCatV1.02B3,2013-01-17 00:37:00,
2013-01-16 18:42:00,34.1,32.3,30.18,NNW,338,0.0,0.0,93,0.00,,,0.07,WeatherCatV1.02B3,2013-01-17 00:42:00,
2013-01-16 18:47:00,34.1,32.3,30.18,NNW,338,0.0,0.0,93,0.00,,,0.07,WeatherCatV1.02B3,2013-01-17 00:47:00,
2013-01-16 18:52:00,34.1,32.3,30.18,NNW,338,0.0,0.0,93,0.00,,,0.07,WeatherCatV1.02B3,2013-01-17 00:52:00,
2013-01-16 18:57:00,34.1,32.3,30.18,NNW,338,0.0,0.0,93,0.00,,,0.07,WeatherCatV1.02B3,2013-01-17 00:57:00,
2013-01-16 19:02:00,34.0,32.2,30.18,NNW,338,0.0,0.0,93,0.00,,,0.07,WeatherCatV1.02B3,2013-01-17 01:02:00,
2013-01-16 19:07:00,34.0,32.2,30.17,NNW,338,0.0,0.0,93,0.00,,,0.07,WeatherCatV1.02B3,2013-01-17 01:07:00,
2013-01-16 19:12:00,34.1,32.6,30.18,NNW,338,0.0,0.0,94,0.00,,,0.07,WeatherCatV1.02B3,2013-01-17 01:12:00,
2013-01-16 19:17:00,34.1,32.6,30.18,NNW,338,0.0,0.0,94,0.00,,,0.07,WeatherCatV1.02B3,2013-01-17 01:17:00,
2013-01-16 19:22:00,34.2,32.7,30.19,NNW,338,0.0,0.0,94,0.00,,,0.07,WeatherCatV1.02B3,2013-01-17 01:22:00,
2013-01-16 19:27:00,34.2,32.7,30.19,NW,314,0.0,0.0,94,0.00,,,0.07,WeatherCatV1.02B3,2013-01-17 01:27:00,
2013-01-16 19:32:00,34.2,32.7,30.19,NNW,331,0.0,0.0,94,0.00,,,0.07,WeatherCatV1.02B3,2013-01-17 01:32:00,
2013-01-16 19:37:00,34.3,32.8,30.19,NNW,331,0.0,0.0,94,0.00,,,0.07,WeatherCatV1.02B3,2013-01-17 01:37:00,
2013-01-16 19:42:00,34.3,32.8,30.18,NNW,331,0.0,0.0,94,0.00,,,0.07,WeatherCatV1.02B3,2013-01-17 01:42:00,
2013-01-16 19:47:00,34.3,32.8,30.18,NNW,331,0.0,0.0,94,0.00,,,0.07,WeatherCatV1.02B3,2013-01-17 01:47:00,
2013-01-16 19:52:00,34.3,32.5,30.19,NNW,331,0.0,0.0,93,0.00,,,0.07,WeatherCatV1.02B3,2013-01-17 01:52:00,
2013-01-16 19:57:00,34.3,32.8,30.20,NNW,331,0.0,0.0,94,0.00,,,0.07,WeatherCatV1.02B3,2013-01-17 01:57:00,
2013-01-16 20:02:00,34.3,32.5,30.20,NNW,331,0.0,0.0,93,0.00,,,0.07,WeatherCatV1.02B3,2013-01-17 02:02:00,
2013-01-16 20:07:00,34.4,32.9,30.20,NNW,331,0.0,0.0,94,0.00,,,0.07,WeatherCatV1.02B3,2013-01-17 02:07:00,
2013-01-16 20:12:00,34.4,32.6,30.20,NNW,331,0.0,0.0,93,0.00,,,0.07,WeatherCatV1.02B3,2013-01-17 02:12:00,
2013-01-16 20:17:00,34.4,32.6,30.20,NW,315,0.0,0.0,93,0.00,,,0.07,WeatherCatV1.02B3,2013-01-17 02:17:00,
2013-01-16 20:22:00,34.5,32.7,30.19,NW,317,0.0,0.0,93,0.00,,,0.07,WeatherCatV1.02B3,2013-01-17 02:22:00,
2013-01-16 20:27:00,34.4,32.6,30.19,NNW,327,0.0,3.0,93,0.00,,,0.07,WeatherCatV1.02B3,2013-01-17 02:27:00,
2013-01-16 20:32:00,34.5,32.7,30.19,NNW,327,0.0,0.0,93,0.00,,,0.07,WeatherCatV1.02B3,2013-01-17 02:32:00,
2013-01-16 20:37:00,34.4,32.6,30.20,NW,319,3.0,4.0,93,0.00,,,0.07,WeatherCatV1.02B3,2013-01-17 02:37:00,
2013-01-16 20:42:00,34.4,32.6,30.20,NW,319,0.0,0.0,93,0.00,,,0.07,WeatherCatV1.02B3,2013-01-17 02:42:00,
2013-01-16 20:47:00,34.4,32.3,30.20,NW,319,2.0,2.0,92,0.00,,,0.07,WeatherCatV1.02B3,2013-01-17 02:47:00,
2013-01-16 20:52:00,34.5,32.4,30.20,NNW,333,3.0,4.0,92,0.00,,,0.07,WeatherCatV1.02B3,2013-01-17 02:52:00,
2013-01-16 20:57:00,34.6,32.5,30.20,NNW,333,0.0,2.0,92,0.00,,,0.07,WeatherCatV1.02B3,2013-01-17 02:57:00,
2013-01-16 21:02:00,34.6,32.5,30.20,NNW,333,0.0,0.0,92,0.00,,,0.07,WeatherCatV1.02B3,2013-01-17 03:02:00,
2013-01-16 21:07:00,34.6,32.5,30.20,NNW,333,0.0,0.0,92,0.00,,,0.07,WeatherCatV1.02B3,2013-01-17 03:07:00,
2013-01-16 21:12:00,34.6,32.5,30.20,NNW,333,0.0,0.0,92,0.00,,,0.07,WeatherCatV1.02B3,2013-01-17 03:12:00,
2013-01-16 21:17:00,34.6,32.5,30.20,NNW,333,0.0,0.0,92,0.00,,,0.07,WeatherCatV1.02B3,2013-01-17 03:17:00,
2013-01-16 21:22:00,34.5,32.4,30.20,NNW,333,0.0,0.0,92,0.00,,,0.07,WeatherCatV1.02B3,2013-01-17 03:22:00,
2013-01-16 21:27:00,34.5,32.7,30.20,NNW,333,0.0,0.0,93,0.00,,,0.07,WeatherCatV1.02B3,2013-01-17 03:27:00,
2013-01-16 21:32:00,34.5,32.7,30.20,NNW,333,0.0,0.0,93,0.00,,,0.07,WeatherCatV1.02B3,2013-01-17 03:32:00,
2013-01-16 21:37:00,34.6,32.8,30.20,NNW,333,0.0,0.0,93,0.00,,,0.07,WeatherCatV1.02B3,2013-01-17 03:37:00,
2013-01-16 21:42:00,34.6,32.8,30.20,NNW,333,0.0,0.0,93,0.00,,,0.07,WeatherCatV1.02B3,2013-01-17 03:42:00,
2013-01-16 21:47:00,34.5,32.7,30.20,NNW,333,0.0,0.0,93,0.00,,,0.07,WeatherCatV1.02B3,2013-01-17 03:47:00,
2013-01-16 21:52:00,34.5,32.7,30.20,NNW,333,0.0,0.0,93,0.00,,,0.07,WeatherCatV1.02B3,2013-01-17 03:52:00,
2013-01-16 21:57:00,34.5,32.7,30.20,NNW,333,0.0,0.0,93,0.00,,,0.07,WeatherCatV1.02B3,2013-01-17 03:57:00,
2013-01-16 22:02:00,34.4,32.6,30.19,NNW,333,0.0,0.0,93,0.00,,,0.07,WeatherCatV1.02B3,2013-01-17 04:02:00,
2013-01-16 22:07:00,34.5,32.7,30.20,NNW,333,0.0,0.0,93,0.00,,,0.07,WeatherCatV1.02B3,2013-01-17 04:07:00,
2013-01-16 22:12:00,34.6,33.1,30.19,NNW,333,0.0,0.0,94,0.00,,,0.07,WeatherCatV1.02B3,2013-01-17 04:12:00,
2013-01-16 22:17:00,34.6,33.1,30.19,NNW,333,0.0,0.0,94,0.00,,,0.07,WeatherCatV1.02B3,2013-01-17 04:17:00,
2013-01-16 22:22:00,34.6,33.1,30.19,NNW,333,0.0,0.0,94,0.00,,,0.08,WeatherCatV1.02B3,2013-01-17 04:22:00,
2013-01-16 22:27:00,34.6,33.1,30.19,NNW,333,0.0,0.0,94,0.00,,,0.08,WeatherCatV1.02B3,2013-01-17 04:27:00,
2013-01-16 22:32:00,34.6,33.1,30.19,NNW,333,3.0,3.0,94,0.00,,,0.08,WeatherCatV1.02B3,2013-01-17 04:32:00,
2013-01-16 22:37:00,34.6,32.8,30.19,NNW,333,1.0,3.0,93,0.00,,,0.08,WeatherCatV1.02B3,2013-01-17 04:37:00,
2013-01-16 22:42:00,34.6,32.8,30.18,NNW,333,4.0,5.0,93,0.00,,,0.08,WeatherCatV1.02B3,2013-01-17 04:42:00,
2013-01-16 22:47:00,34.6,32.8,30.18,NW,326,3.0,5.0,93,0.00,,,0.08,WeatherCatV1.02B3,2013-01-17 04:47:00,
2013-01-16 22:52:00,34.6,32.8,30.18,NW,315,5.0,5.0,93,0.00,,,0.08,WeatherCatV1.02B3,2013-01-17 04:52:00,
2013-01-16 22:57:00,34.6,32.8,30.18,NW,309,5.0,5.0,93,0.00,,,0.08,WeatherCatV1.02B3,2013-01-17 04:57:00,
2013-01-16 23:00:00,34.6,32.8,30.18,NW,309,4.0,4.0,93,0.00,,,0.08,WeatherCatV1.02B3,2013-01-17 05:00:00,
2013-01-16 23:05:00,34.6,32.8,30.18,NW,309,0.0,5.0,93,0.00,,,0.08,WeatherCatV1.02B3,2013-01-17 05:05:00,
2013-01-16 23:10:00,34.6,32.8,30.18,NW,309,3.0,3.0,93,0.00,,,0.08,WeatherCatV1.02B3,2013-01-17 05:10:00,
2013-01-16 23:15:00,34.6,32.8,30.18,NW,319,0.0,3.0,93,0.00,,,0.08,WeatherCatV1.02B3,2013-01-17 05:15:00,
2013-01-16 23:20:00,34.6,32.8,30.18,NW,319,0.0,0.0,93,0.00,,,0.08,WeatherCatV1.02B3,2013-01-17 05:20:00,
2013-01-16 23:25:00,34.6,32.8,30.18,NNW,333,2.0,4.0,93,0.00,,,0.08,WeatherCatV1.02B3,2013-01-17 05:25:00,
2013-01-16 23:30:00,34.6,32.8,30.17,NNW,333,4.0,4.0,93,0.00,,,0.08,WeatherCatV1.02B3,2013-01-17 05:30:00,
2013-01-16 23:35:00,34.6,32.8,30.18,NNW,333,3.0,3.0,93,0.00,,,0.08,WeatherCatV1.02B3,2013-01-17 05:35:00,
2013-01-16 23:40:00,34.5,32.7,30.18,NNW,333,2.0,3.0,93,0.00,,,0.08,WeatherCatV1.02B3,2013-01-17 05:40:00,
2013-01-16 23:45:00,34.5,32.7,30.18,NNW,333,2.0,2.0,93,0.00,,,0.08,WeatherCatV1.02B3,2013-01-17 05:45:00,
2013-01-16 23:50:00,34.5,32.4,30.18,NNW,333,2.0,5.0,92,0.00,,,0.08,WeatherCatV1.02B3,2013-01-17 05:50:00,
2013-01-16 23:55:00,34.6,32.5,30.18,NW,308,4.0,4.0,92,0.00,,,0.08,WeatherCatV1.02B3,2013-01-17 05:55:00,